Location: Unspecified
(52.4292°N, 19.3359°E)
Time: 20:06:28
(UTC+02:00)

Tiros 1 - Pass Details

Date: 26 May 2024
Orbit: 624 x 657 km, 48.4° (Epoch: 15 June)

Event Time Altitude Azimuth Distance (km) Brightness Sun altitude
Rises 15:26:58 0° 275° (W) 2,983 11.1 45.3°
Reaches altitude 10° 15:29:27 10° 267° (W) 2,070 10.6 45.0°
Maximum altitude 15:33:50 37° 200° (SSW) 1,014 9.3 44.4°
Drops below altitude 10° 15:38:13 10° 134° (SE) 2,060 9.7 43.8°
Sets 15:40:40 0° 126° (SE) 2,967 10.3 43.5°
